NUSANTARA SATU

Last updated on Wed Mar 11 2026 00:02:55 GMT+0000 (Coordinated Universal Time)

1 44048U 19009A 26069.46134125 -.00000233 00000+0 00000+0 0 9995 2 44048 0.0309 131.1285 0002039 315.4720 33.5986 1.00270440 25785
UTC large
Height (km)
Speed (km/s)
/
Latitude / Longitude
Inclination (degrees)
Orbital Period (minutes)
Azimuth
Elevation
Range (km)
Doppler Factor

Next 0 passes for location: London (51.5072 / 0.1276)

Sorry there are no passes over London.